Rome, GA

11:40 AM EDT on September 22, 2017 (GMT -0400)
Russell

Weather History for KRMG - July, 2013

Change the Weather History Date:

Saturday, July 20, 2013

  Actual Average Record
Temperature  
Mean Temperature 81 °F 80 °F  
Max Temperature 91 °F 90 °F 99 °F (2000)
Min Temperature 71 °F 69 °F 64 °F (2004)
Cooling Degree Days 16 15  
Month to date cooling degree days 254 286  
Year to date cooling degree days 763 784  
Since 1 June cooling degree days 620 616  
Growing Degree Days 31 (Base 50)    
Moisture  
Dew Point 72 °F    
Average Humidity 78    
Maximum Humidity 100    
Minimum Humidity 55    
Precipitation  
Precipitation 0.00 in 0.13 in 0.51 in (2012)
Month to date precipitation 4.77 3.13  
Year to date precipitation 24.99 30.10  
Sea Level Pressure  
Sea Level Pressure 29.98 in    
Wind  
Wind Speed 1 mph (WSW)    
Max Wind Speed 13 mph    
Max Gust Speed 22 mph    
Visibility 10 miles    
Events Thunderstorm    
T = Trace of Precipitation, MM = Missing Value Source: NWS Daily Summary

Daily Weather History Graph

Daily Weather History Graph

Search for Another Location

Airport or City:

Trip Planner

Search our weather history database for the weather conditions in past years. The results will help you decide how hot, cold, wet, or windy it might be!

Date:

Astronomy

Jul. 20, 2013 Rise Set
Actual Time 6:43 AM EDT 8:50 PM EDT
Civil Twilight 6:14 AM EDT 9:18 PM EDT
Nautical Twilight 5:40 AM EDT 9:53 PM EDT
Astronomical Twilight 5:02 AM EDT 10:30 PM EDT
Moon 6:53 PM EDT (7/20) 4:21 AM EDT (7/20)
Length of Visible Light 15h 04m
Length of Day
14h 07m
Waxing Gibbous, 93% of the Moon is Illuminated
Jul 20
Waxing Gibbous
Jul 22
Full
Jul 29
Last Quarter
Aug 6
New
Aug 14
First Quarter

Hourly Weather History & Observations

Time (EDT) Temp. Heat Index Dew Point Humidity Pressure Visibility Wind Dir Wind Speed Gust Speed Precip Events Conditions
12:53 AM 73.9 °F - 73.0 °F 97% 30.01 in 10.0 mi Calm Calm - N/A   Partly Cloudy
1:53 AM 73.0 °F - 72.0 °F 96% 30.01 in 10.0 mi Calm Calm - N/A   Clear
2:53 AM 72.0 °F - 72.0 °F 100% 29.99 in 8.0 mi Calm Calm - N/A   Partly Cloudy
3:53 AM 73.0 °F - 72.0 °F 96% 29.99 in 8.0 mi Calm Calm - N/A   Overcast
4:53 AM 72.0 °F - 72.0 °F 100% 29.99 in 9.0 mi Calm Calm - N/A   Clear
5:53 AM 71.1 °F - 71.1 °F 100% 30.00 in 9.0 mi Calm Calm - N/A   Clear
6:53 AM 71.1 °F - 71.1 °F 100% 30.01 in 6.0 mi Calm Calm - N/A   Partly Cloudy
7:53 AM 72.0 °F - 71.1 °F 97% 30.01 in 8.0 mi WNW 3.5 mph - N/A   Clear
8:53 AM 73.9 °F - 72.0 °F 93% 30.01 in 10.0 mi Calm Calm - N/A   Clear
9:53 AM 78.1 °F - 73.0 °F 84% 30.02 in 10.0 mi Calm Calm - N/A   Clear
10:53 AM 81.0 °F 85.8 °F 73.0 °F 77% 30.01 in 10.0 mi Calm Calm - N/A   Clear
11:53 AM 82.9 °F 89.4 °F 73.9 °F 74% 30.01 in 10.0 mi Calm Calm - N/A   Clear
12:53 PM 86.0 °F 93.8 °F 73.9 °F 67% 29.99 in 10.0 mi Calm Calm - N/A   Clear
1:53 PM 86.0 °F 92.2 °F 72.0 °F 63% 29.96 in 10.0 mi WNW 3.5 mph - N/A   Mostly Cloudy
2:53 PM 88.0 °F 92.9 °F 70.0 °F 55% 29.94 in 10.0 mi Calm Calm - N/A   Partly Cloudy
3:53 PM 84.9 °F 92.1 °F 73.9 °F 69% 29.93 in 10.0 mi SSW 6.9 mph 16.1 mph N/A   Clear
4:53 PM 86.0 °F 93.0 °F 73.0 °F 65% 29.93 in 10.0 mi SSW 6.9 mph - N/A   Mostly Cloudy
5:13 PM 84.2 °F 89.6 °F 71.6 °F 66% 29.97 in 10.0 mi WSW 8.1 mph 16.1 mph N/A Thunderstorm Partly Cloudy
5:31 PM 82.4 °F 88.2 °F 73.4 °F 74% 29.97 in 10.0 mi SW 5.8 mph - N/A Thunderstorm Clear
5:53 PM 82.0 °F 87.4 °F 73.0 °F 74% 29.94 in 10.0 mi WNW 3.5 mph - N/A Thunderstorm Partly Cloudy
6:13 PM 80.6 °F 85.4 °F 73.4 °F 79% 29.96 in 10.0 mi North 4.6 mph - N/A   Partly Cloudy
6:53 PM 80.1 °F 83.6 °F 71.1 °F 74% 29.92 in 10.0 mi SW 5.8 mph - N/A   Clear
7:53 PM 79.0 °F - 71.1 °F 77% 29.92 in 10.0 mi Calm Calm - N/A   Clear
8:53 PM 77.0 °F - 72.0 °F 84% 29.95 in 10.0 mi Variable 4.6 mph - N/A   Clear
9:53 PM 75.9 °F - 73.0 °F 91% 29.98 in 10.0 mi Calm Calm - N/A   Clear
10:53 PM 75.0 °F - 73.0 °F 94% 29.99 in 10.0 mi Calm Calm - N/A   Clear
11:53 PM 75.0 °F - 73.0 °F 94% 29.99 in 10.0 mi Calm Calm - N/A   Clear